Wind_Speed
44 46 49 49 50 51 52 53 55 57 58 59 60 61 62 62 63 63 63 64 63 64 64 63 62 61 60 60 59 58 58 56
48 50 53 54 56 57 57 58 58 59 60 62 64 65 65 66 68 69 68 67 65 65 64 63 63 63 61 60 59 59 59 58
48 47 50 51 53 56 57 59 59 61 62 62 63 64 65 66 66 67 66 66 65 65 65 62 62 62 61 60 61 61 60 61
53 56 57 53 53 54 56 57 58 58 59 60 61 62 62 61 61 61 61 61 61 60 60 60 61 61 61 62 63 64 63 66
50 54 53 50 48 48 48 51 53 54 55 57 58 59 60 60 61 61 60 61 60 61 61 63 65 64 65 67 67 68 70 71
47 51 50 51 54 56 51 50 51 52 53 54 54 54 55 56 57 59 60 61 61 61 62 64 63 63 63 65 67 65 61 60
51 52 52 55 58 56 50 47 45 44 44 45 46 47 49 50 52 53 53 52 53 51 50 50 50 50 52 53 53 55 56 55
47 50 51 56 56 44 38 36 37 39 41 42 42 43 43 43 44 44 45 46 47 47 46 46 44 43 44 41 40 40 42 44
51 52 51 49 38 35 36 36 35 36 36 36 37 37 38 38 38 38 39 40 40 41 39 35 33 32 32 34 36 38 39 38
40 33 30 27 30 30 30 31 31 31 34 35 35 35 36 36 34 32 32 31 33 33 33 33 30 26 28 29 31 31 30 31
36 29 26 27 27 30 32 35 35 33 34 33 34 34 34 32 31 29 28 27 27 28 29 29 27 29 28 27 27 26 27 28
23 27 27 28 30 31 32 34 36 35 40 39 38 37 32 30 28 27 27 26 25 26 25 24 24 22 24 26 29 30 29 32
27 27 30 30 30 31 37 38 34 34 39 39 33 29 30 29 27 28 27 26 25 27 26 26 26 26 22 22 28 30 29 32
31 31 27 30 31 34 35 33 33 38 41 32 26 27 28 29 28 30 29 27 28 28 28 27 27 25 25 25 24 23 21 22
34 33 31 35 33 33 31 32 34 41 34 30 27 27 28 28 29 30 29 30 30 30 28 26 25 24 23 22 24 26 23 19
35 33 35 38 34 30 31 33 34 32 31 29 26 26 27 27 27 29 31 31 29 28 27 26 25 23 22 22 21 19 19 20
37 34 36 30 28 29 29 29 29 31 30 30 30 31 31 31 31 28 25 26 29 27 25 24 23 21 20 21 21 20 19 19
21 22 23 21 25 26 27 28 29 30 31 31 30 29 28 29 30 26 24 23 26 27 24 22 22 20 18 17 19 18 19 19
16 15 18 21 22 23 24 25 26 27 27 26 27 27 27 26 24 25 23 22 23 26 25 21 20 19 19 18 16 17 17 17
Wind_Direction
282 282 281 281 282 280 279 278 277 277 278 279 279 280 280 280 280 281 281 281 282 282 282 283 283 282 280 279 279 277 276 274
278 279 278 279 279 279 278 277 277 278 279 279 280 281 281 281 282 283 282 282 283 283 283 283 282 281 279 277 274 273 273 271
290 287 283 281 279 277 276 276 276 277 277 278 279 280 280 281 281 281 281 281 282 282 282 281 281 280 279 276 274 272 270 268
294 290 288 288 286 284 282 280 279 278 278 278 279 279 279 279 279 278 278 278 279 279 280 279 278 277 276 273 271 270 269 269
288 287 291 293 292 287 283 281 279 278 277 277 277 277 278 278 279 279 279 279 279 278 276 276 275 273 272 270 269 267 265 265
282 284 287 289 293 293 289 286 283 282 281 281 281 281 282 282 282 282 281 279 279 278 277 277 277 276 276 274 276 277 273 271
272 277 284 288 291 292 290 288 287 285 284 283 283 283 284 285 285 286 285 284 284 284 283 281 279 277 276 274 272 270 268 267
273 276 280 287 291 292 292 290 286 284 284 284 284 285 285 286 287 288 287 286 285 284 283 284 285 280 275 273 273 273 272 269
278 285 284 287 293 296 292 288 285 288 289 290 290 290 290 290 290 289 289 290 290 289 291 290 286 284 277 276 275 268 271 266
280 289 302 300 296 292 294 295 294 292 293 292 293 294 292 289 289 291 292 294 297 298 298 299 297 297 282 284 270 266 265 267
299 308 299 297 291 289 290 288 288 297 303 298 293 295 295 290 290 293 295 297 302 306 301 301 302 303 302 298 284 278 275 270
299 301 301 295 290 290 289 296 294 293 298 301 294 292 290 289 289 292 297 303 311 314 311 319 315 304 298 298 288 282 282 282
286 299 300 298 294 292 284 286 293 299 299 300 292 291 289 290 290 294 296 300 310 311 321 327 326 320 305 293 282 282 282 281
288 290 293 295 291 291 285 284 291 287 296 299 293 293 293 293 292 292 292 297 298 303 314 318 324 327 324 316 301 292 277 291
287 285 288 295 298 294 283 284 284 288 298 296 291 294 295 294 293 292 293 293 294 296 303 310 317 322 327 332 329 321 309 305
289 286 286 291 291 288 284 289 287 290 295 292 289 285 291 296 301 302 297 291 291 292 295 301 308 313 322 328 330 338 345 340
285 283 285 279 280 285 289 287 291 292 293 294 293 292 290 289 295 297 300 305 295 289 291 294 300 304 309 318 326 332 336 339
280 272 271 275 283 284 289 295 299 304 304 303 303 304 298 296 297 297 297 304 300 286 284 289 294 298 303 309 314 323 331 332
275 272 272 281 286 292 296 300 302 302 302 303 301 299 299 297 302 301 296 301 303 296 279 280 287 292 297 301 304 310 316 321
Height
5766 5762 5758 5758 5757 5754 5753 5750 5748 5746 5745 5742 5740 5738 5736 5734 5733 5733 5731 5730 5729 5727 5726 5725 5724 5723 5722 5719 5718 5718 5719 5720
5754 5751 5747 5747 5743 5743 5740 5738 5735 5733 5731 5728 5726 5723 5721 5718 5717 5716 5714 5714 5713 5711 5709 5708 5707 5706 5705 5703 5703 5702 5701 5702
5740 5738 5733 5733 5729 5728 5726 5724 5720 5719 5716 5714 5711 5708 5705 5703 5701 5699 5698 5696 5694 5693 5692 5690 5689 5688 5687 5686 5685 5685 5685 5684
5726 5719 5718 5718 5715 5714 5713 5710 5706 5703 5701 5698 5695 5692 5689 5687 5685 5683 5682 5680 5678 5677 5675 5673 5671 5670 5670 5669 5668 5667 5667 5665
5711 5707 5706 5704 5701 5700 5699 5694 5692 5689 5686 5683 5680 5678 5675 5673 5670 5668 5666 5664 5662 5661 5658 5656 5654 5653 5652 5651 5650 5649 5648 5648
5699 5696 5695 5694 5690 5685 5685 5681 5680 5676 5672 5670 5667 5664 5662 5659 5656 5653 5652 5650 5648 5646 5643 5640 5637 5636 5634 5633 5631 5630 5629 5630
5688 5687 5687 5683 5679 5675 5672 5670 5666 5664 5661 5657 5655 5652 5649 5646 5643 5640 5637 5635 5634 5631 5629 5626 5623 5621 5619 5617 5615 5614 5612 5612
5679 5678 5676 5674 5671 5666 5661 5661 5656 5654 5650 5647 5644 5641 5638 5636 5632 5629 5626 5623 5620 5618 5615 5612 5610 5607 5605 5603 5601 5600 5599 5599
5671 5669 5666 5664 5662 5657 5653 5651 5648 5645 5641 5638 5635 5632 5629 5626 5623 5619 5616 5613 5610 5607 5603 5601 5598 5595 5593 5592 5590 5590 5589 5589
5660 5658 5656 5655 5652 5649 5645 5643 5640 5637 5633 5630 5626 5624 5621 5617 5614 5611 5608 5604 5601 5597 5594 5591 5587 5585 5584 5581 5580 5579 5578 5578
5650 5648 5646 5647 5645 5641 5638 5635 5633 5629 5625 5622 5620 5616 5613 5609 5607 5604 5601 5598 5595 5591 5587 5583 5580 5577 5574 5572 5570 5570 5569 5568
5643 5641 5640 5639 5638 5633 5631 5628 5625 5622 5619 5615 5611 5608 5606 5602 5599 5597 5595 5591 5588 5585 5581 5577 5573 5570 5567 5563 5561 5560 5559 5558
5636 5634 5633 5631 5629 5626 5623 5621 5617 5614 5610 5606 5603 5600 5598 5596 5593 5591 5588 5585 5582 5579 5576 5572 5568 5564 5560 5556 5553 5551 5549 5547
5628 5627 5625 5623 5620 5618 5615 5613 5610 5606 5603 5599 5596 5593 5591 5589 5587 5584 5581 5579 5576 5574 5570 5568 5564 5560 5555 5550 5546 5544 5542 5539
5620 5618 5617 5614 5612 5610 5607 5605 5602 5599 5595 5592 5590 5587 5584 5582 5580 5577 5574 5572 5570 5568 5565 5563 5559 5556 5551 5546 5542 5537 5533 5531
5610 5609 5607 5606 5604 5602 5600 5597 5595 5592 5588 5585 5583 5581 5577 5574 5572 5569 5567 5565 5563 5561 5560 5557 5554 5551 5547 5544 5540 5536 5532 5527
5601 5600 5599 5597 5596 5595 5593 5591 5588 5585 5582 5579 5575 5572 5569 5567 5565 5563 5560 5558 5556 5555 5554 5551 5549 5546 5543 5540 5537 5533 5530 5527
5593 5592 5591 5591 5590 5589 5587 5584 5581 5578 5574 5571 5568 5565 5562 5560 5558 5556 5554 5552 5550 5548 5547 5545 5543 5541 5538 5536 5534 5530 5527 5524
5587 5587 5586 5586 5585 5584 5582 5579 5576 5573 5569 5565 5562 5559 5556 5554 5552 5551 5548 5546 5544 5542 5540 5538 5537 5535 5534 5532 5530 5527 5525 5522